Weather History for Morgantown, WV

Change the Weather History Date:

Saturday, September 8, 2012

  Actual Average Record
Temperature  
Mean Temperature 67 °F 68 °F  
Max Temperature 77 °F 79 °F 92 °F (1959)
Min Temperature 57 °F 58 °F 40 °F (1951)
Degree Days  
Heating Degree Days 0 1  
Month to date heating degree days 0 8  
Since 1 July heating degree days 0 19  
Cooling Degree Days 2 4  
Month to date cooling degree days 94 39  
Year to date cooling degree days 1094 748  
Growing Degree Days 16 (Base 50)    
Moisture  
Dew Point 62 °F    
Average Humidity 79    
Maximum Humidity 93    
Minimum Humidity 64    
Precipitation  
Precipitation 0.55 in 0.11 in 1.73 in (2004)
Month to date precipitation 1.08 0.85  
Year to date precipitation 21.76 30.32  
Sea Level Pressure  
Sea Level Pressure 29.76 in    
Wind  
Wind Speed 4 mph (SW)    
Max Wind Speed 21 mph    
Max Gust Speed 37 mph    
Visibility 8 miles    
Events Fog , Rain    
T = Trace of Precipitation, MM = Missing Value Source: NWS Daily Summary

Daily Weather History Graph

Daily Weather History Graph

Search for Another Location

Airport:

Trip Planner

Search our weather history database for the weather conditions in past years. The results will help you decide how hot, cold, wet, or windy it might be!

Date:

Astronomy

Sep. 08, 2012 Rise Set
Actual Time 6:54 AM EDT 7:38 PM EDT
Civil Twilight 6:27 AM EDT 8:06 PM EDT
Nautical Twilight 5:55 AM EDT 8:38 PM EDT
Astronomical Twilight 5:21 AM EDT 9:11 PM EDT
Moon No Moon Rise 2:33 PM EDT (9/8)
Length of Visible Light 13h 38m
Length of Day
12h 44m
Waning Gibbous, 49% of the Moon is Illuminated
Sep 8
Waning Gibbous
Sep 15
New
Sep 22
First Quarter
Sep 29
Full
Oct 8
Last Quarter

Hourly Weather History & Observations

Time (EDT) Temp. Dew Point Humidity Pressure Visibility Wind Dir Wind Speed Gust Speed Precip Events Conditions
12:53 AM 75.9 °F 63.0 °F 64% 29.75 in 10.0 mi South 6.9 mph - N/A   Clear
1:53 AM 75.0 °F 63.0 °F 66% 29.73 in 10.0 mi Variable 4.6 mph - N/A   Clear
2:53 AM 75.0 °F 64.0 °F 69% 29.71 in 10.0 mi Variable 5.8 mph - N/A   Clear
3:53 AM 75.9 °F 63.0 °F 64% 29.69 in 10.0 mi South 8.1 mph 16.1 mph N/A   Clear
4:53 AM 75.9 °F 63.0 °F 64% 29.65 in 10.0 mi Variable 5.8 mph - N/A   Clear
5:53 AM 75.9 °F 62.1 °F 62% 29.64 in 10.0 mi Variable 6.9 mph 16.1 mph N/A   Clear
6:53 AM 69.1 °F 64.9 °F 87% 29.70 in 10.0 mi Variable 3.5 mph - 0.02 in   Overcast
7:53 AM 68.0 °F 64.9 °F 90% 29.69 in 7.0 mi South 6.9 mph - 0.03 in Rain Light Rain
8:53 AM 68.0 °F 66.0 °F 93% 29.70 in 10.0 mi South 4.6 mph - 0.00 in   Overcast
9:08 AM 68.0 °F 66.2 °F 94% 29.73 in 1.8 mi South 4.6 mph - 0.04 in Rain Heavy Rain
9:15 AM 66.2 °F 66.2 °F 100% 29.73 in 3.0 mi Variable 6.9 mph - 0.06 in Rain Light Rain
9:53 AM 66.9 °F 66.0 °F 97% 29.70 in 4.0 mi SSW 5.8 mph - 0.11 in Rain Rain
10:01 AM 66.2 °F 66.2 °F 100% 29.73 in 1.8 mi SSW 5.8 mph - 0.04 in Rain Heavy Rain
10:14 AM 66.2 °F 66.2 °F 100% 29.72 in 3.0 mi Variable 4.6 mph - 0.08 in Rain Rain
10:21 AM 66.2 °F 66.2 °F 100% 29.73 in 6.0 mi South 4.6 mph - 0.08 in Rain Light Rain
10:53 AM 68.0 °F 66.0 °F 93% 29.70 in 10.0 mi South 5.8 mph - 0.09 in Rain Light Rain
11:42 AM 66.2 °F 64.4 °F 94% 29.78 in 1.2 mi WNW 20.7 mph 36.8 mph 0.09 in Rain Light Rain
11:49 AM 62.6 °F 59.0 °F 88% 29.77 in 0.5 mi West 10.4 mph 36.8 mph 0.21 in Fog , Rain Heavy Rain
11:53 AM 62.1 °F 59.0 °F 90% 29.74 in 0.8 mi Variable 5.8 mph 21.9 mph 0.22 in Rain Heavy Rain
11:57 AM 62.6 °F 59.0 °F 88% 29.77 in 2.0 mi SW 3.5 mph 16.1 mph 0.01 in Rain Rain
12:06 PM 62.6 °F 60.8 °F 94% 29.77 in 6.0 mi South 3.5 mph - 0.02 in Rain Light Rain
12:50 PM 62.6 °F 62.6 °F 100% 29.76 in 8.0 mi Calm Calm - 0.04 in Rain Light Rain
12:53 PM 63.0 °F 61.0 °F 93% 29.73 in 10.0 mi Calm Calm - 0.04 in Rain Light Rain
1:23 PM 64.4 °F 62.6 °F 94% 29.74 in 10.0 mi South 8.1 mph - N/A   Overcast
1:43 PM 64.4 °F 62.6 °F 94% 29.82 in 10.0 mi West 4.6 mph - 0.01 in Rain Light Rain
1:51 PM 64.4 °F 62.6 °F 94% 29.81 in 7.0 mi Variable 3.5 mph - 0.02 in Rain Light Rain
1:53 PM 64.0 °F 62.1 °F 93% 29.77 in 5.0 mi Calm Calm - 0.02 in Rain Rain
2:07 PM 64.4 °F 60.8 °F 88% 29.78 in 7.0 mi Variable 3.5 mph - 0.02 in Rain Light Rain
2:21 PM 62.6 °F 60.8 °F 94% 29.78 in 10.0 mi NW 6.9 mph - 0.02 in   Overcast
2:53 PM 63.0 °F 60.1 °F 90% 29.80 in 10.0 mi WSW 3.5 mph - 0.02 in   Overcast
3:53 PM 63.0 °F 57.9 °F 84% 29.79 in 10.0 mi WNW 5.8 mph - N/A   Scattered Clouds
4:53 PM 64.0 °F 55.9 °F 75% 29.79 in 10.0 mi WNW 8.1 mph - N/A   Scattered Clouds
5:53 PM 63.0 °F 55.0 °F 75% 29.81 in 10.0 mi WNW 4.6 mph - N/A   Mostly Cloudy
6:53 PM 63.0 °F 55.9 °F 78% 29.83 in 10.0 mi Calm Calm - N/A   Partly Cloudy
7:53 PM 62.1 °F 55.9 °F 80% 29.85 in 10.0 mi SW 3.5 mph - N/A   Clear
8:53 PM 59.0 °F 55.9 °F 90% 29.87 in 10.0 mi SSW 3.5 mph - N/A   Mostly Cloudy
9:53 PM 57.0 °F 55.9 °F 96% 29.89 in 9.0 mi Calm Calm - N/A   Clear
10:53 PM 57.0 °F 55.9 °F 96% 29.91 in 10.0 mi South 3.5 mph - N/A   Scattered Clouds
11:53 PM 57.9 °F 55.9 °F 93% 29.92 in 10.0 mi SSW 4.6 mph - N/A   Overcast